    Observer details:
    033 Karl Schwarzschild Observatory, Tautenburg.  Observers F. Ludwig,
        B. Stecklum.  Measurer B. Stecklum.  1.34-m f/3 Schmidt + CCD.
    104 San Marcello Pistoiese.  Observers P. Bacci, M. Maestripieri.  Measurers
        P. Bacci, L. Tesi, G. Fagioli.  0.60-m reflector + CCD.
    203 GiaGa Observatory.  Observers S. Foglia, G. Galli.  Measurer G. Galli.
        0.36-m f/5.76 Schmidt-Cassegrain + CCD.
    246 Klet Observatory-KLENOT.  Observers M. Tichy, J. Ticha.  Measurer
        M. Tichy.  1.06-m f/2.7 reflector + 2048x2048 CCD.
    474 Mount John Observatory, Lake Tekapo.  Observers A. C. Gilmore,
        P. M. Kilmartin.  Measurer P. M. Kilmartin.  1.0-m f/7.7 reflector + CCD.
    C43 Hoyerswerda.  Observer P. Lindner.  0.30-m f/6.3 Schmidt-Cassegrain + CCD.
    F51 Pan-STARRS 1, Haleakala.  Observers J. Bulger, K. Chambers, T. Lowe,
        E. Magnier, A. Schultz, M. Willman.  Measurers S. Chastel, M. Huber,
        Y. Ramanjooloo, R. Wainscoat, R. Weryk.  1.8-m Ritchey-Chretien + CCD.
    G96 Mt. Lemmon Survey.  Observers B. M. Africano, T. A. Pruyne.  Measurers
        B. M. Africano, E. J. Christensen, G. A. Farneth, D. C. Fuls, A. R. Gibbs,
        A. D. Grauer, H. Groeller, R. A. Kowalski, S. M. Larson, G. J. Leonard,
        T. A. Pruyne, D. Rankin, R. L. Seaman, F. C. Shelly.  1.5-m reflector +
        10K CCD.
    H21 Astronomical Research Observatory, Westfield.  Observer R. Holmes.
        Measurers S. Foglia, L. Buzzi, T. Linder, R. Holmes.  0.76-m f/3.0
        astrograph + CCD.
    I52 Steward Observatory, Mt. Lemmon Station.  Observers D. C. Fuls,
        E. J. Christensen.  Measurers B. M. Africano, E. J. Christensen,
        G. A. Farneth, D. C. Fuls, A. R. Gibbs, A. D. Grauer, H. Groeller,
        R. A. Kowalski, S. M. Larson, G. J. Leonard, T. A. Pruyne, D. Rankin,
        R. L. Seaman, F. C. Shelly.  1.0-m reflector + CCD.
    I93 St Pardon de Conques.  Observers F. Losse, W. D'Anna.  0.40-m f/3.7
        reflector + CCD.
    J95 Great Shefford.  Observer P. Birtwhistle.  0.41-m f/6.3
        Schmidt-Cassegrain + CCD.
    K61 Rokycany Observatory.  Observer M. Adamovsky.  0.51-m f/6.8 reflector +
        CCD.
    K63 G. Pascoli Observatory, Castelvecchio Pascoli.  Observer R. Bacci.
        0.41-m f/3.2 Newtonian reflector + CCD.
    L01 Visnjan Observatory, Tican.  Observer K. Korlevic.  1.0-m f/2.9 reflector
        + CCD.
    Z80 Northolt Branch Observatory.  Observer G. Wells.  Measurer D. Bamberger.
        0.25-m f/8.0 Ritchey-Chretien + CCD.
    Z84 Calar Alto-Schmidt.  Observer E. Schwab.  Measurers E. Schwab, D. Koschny,
        M. Micheli.  0.8-m f/3 Schmidt + CCD.
    
    Orbital elements:
    2019 LH1                                                 Earth MOID = 0.0282 AU
    Epoch 2019 Apr. 27.0 TT = JDT 2458600.5                 MPC
    M 340.94331              (2000.0)            P               Q
    n   0.56429206     Peri.  356.96890     -0.36671873     +0.79950010
    a   1.4503298      Node   251.09926     -0.84263753     -0.50217123
    e   0.2813664      Incl.   30.18810     -0.39430871     +0.32958101
    P   1.75           H   25.0           G   0.15           U   7
    Residuals in seconds of arc
    190602 G96 (0.2-  1.7-)   190602 L01  0.0   0.6-    190603 246  0.1+  0.3-
    190602 G96 (0.2-  2.6-)   190602 L01  0.2-  0.3-    190603 246  0.9+  1.0+
    190602 G96 (0.3-  3.7-)   190602 033  0.2+  0.4+    190603 246  0.8-  1.2-
    190602 I52  0.1-  0.1+    190602 033  0.1+  0.4-    190603 246  0.1-  0.1+
    190602 I52  0.2+  0.1-    190602 033  0.0   0.7-    190603 K63  0.1-  1.0+
    190602 I52  0.2-  0.5-    190602 I93  0.1+  0.7-    190603 K63  0.3-  0.8+
    190602 F51  0.2+  0.6+    190602 I93  0.2-  0.2-    190603 K63  0.2+  0.7+
    190602 474  0.0   0.0     190602 I93  0.2-  0.3+    190603 Z80  0.1+  0.2+
    190602 474  0.1-  0.1+    190602 203  0.1+  0.4-    190603 Z80  0.2+  0.1-
    190602 474  0.4-  0.0     190602 C43  0.5-  0.6-    190603 Z80  0.3-  0.5-
    190602 474  0.1+  0.1-    190602 C43  0.4-  0.3-    190604 Z84  0.1+  0.1+
    190602 F51  0.1+  0.2+    190602 C43  0.3-  0.2-    190604 Z84  0.1+  0.3+
    190602 474  0.1+  0.0     190602 203  0.2+  0.4-    190604 I52  0.1-  0.1-
    190602 474  0.0   0.2-    190602 203  0.1-  0.1-    190604 I52  0.1-  0.4-
    190602 474  0.1-  0.0     190603 H21  0.3+  0.6-    190604 I52  0.0   0.4-
    190602 474  0.4-  0.0     190603 H21  0.2+  0.9-    190604 I52  0.4-  0.9-
    190602 104  0.8-  0.3+    190603 H21  0.1+  0.4-    190604 G96  0.3-  1.0+
    190602 104  0.8-  0.2-    190603 H21  0.3+  0.5-    190604 G96  0.3+  1.4+
    190602 104  0.8-  0.6-    190603 K61  0.4-  0.6+    190604 G96 (0.6-  5.1-)
    190602 246  0.2+  0.3+    190603 K61  0.3-  1.0+    190604 G96 (0.0   2.0-)
    190602 246  1.4+  0.5+    190603 K61  0.0   0.9+    190604 J95  0.1+  0.4-
    190602 246 (1.6+  0.8+)   190603 K61  0.2+  0.8+    190604 J95  0.4+  0.4-
    190602 246  1.2+  0.2+    190603 K61  0.1+  1.1+    190604 J95  0.1-  0.2+
    190602 246  0.7-  1.1-    190603 246  1.4-  0.4+    190605 I52  0.3+  0.2-
    190602 L01  0.5+  0.3-    190603 246  0.1-  0.5+    190605 I52  0.5-  0.1+
    190602 L01  0.3+  0.2-    190603 K63 (0.0   1.5+)   190605 I52  0.1+  0.1-
    190602 L01  0.2-  0.1+    190603 246  0.2-  0.5-    190605 I52  0.1-  0.2+
    
    Ephemeris:
    2019 LH1                 a,e,i = 1.45, 0.28, 30                  q = 1.0423
    Date    TT    R. A. (2000) Decl.     Delta      r     Elong.  Phase     V
    2019 05 06    06 18 57.6 -72 59 36   0.2584  1.0652    95.6    70.5    24.7
    ...
    2019 05 21    07 34 28.8 -77 08 41   0.1236  1.0459   102.6    70.8    23.0
    ...
    2019 05 29    13 05 17.2 -73 04 12   0.05289 1.0424   121.9    55.6    20.7
    ...
    2019 06 04    15 46 58.8 +03 43 39   0.03269 1.0429   150.2    28.9    18.9
    2019 06 05    15 57 38.3 +16 44 50   0.03780 1.0433   138.8    39.9    19.6
    2019 06 06    16 06 23.8 +26 14 44   0.04443 1.0437   129.9    48.3    20.1
    ...
    2019 06 12    16 37 17.9 +48 52 21   0.09529 1.0479   107.4    67.6    22.4
    ...
    2019 06 20    16 55 26.9 +55 58 34   0.1684  1.0576    99.7    71.3    23.8
    ...
    2019 07 05    17 11 21.9 +58 57 37   0.3007  1.0875    95.5    68.5    25.0
    
    Gareth V. Williams           (C) Copyright 2019 MPC           M.P.E.C. 2019-L67
    

    Read MPEC 2019-L66 Read MPEC 2019-L68


    MPEC number:

    Enter an MPEC number in one of the following forms:

    • 1997-B01 (the full form)
    • J97B01 (the packed version of the full form)
    • B01 (the abbreviated form)